Location: Banff
(51.1667°N, 115.5667°W)
Time: 15:55:38
(UTC+00:00)

Courier 1B Rocket - All Passes

Search period start: 26 November 2020 00:00
Search period end: 06 December 2020 00:00
Orbit: 920 x 1202 km, 28.2° (Epoch: 25 November)

Date Brightness Start Highest point End Pass type
(mag) Time Alt. Az. Time Alt. Az. Time Alt. Az.
26 Nov - 15:55:40 10° S 15:57:04 11° S 15:58:28 10° SSE daylight
27 Nov - 14:55:22 10° S 14:56:24 10° S 14:57:26 10° SSE daylight
28 Nov - 15:45:53 10° SSW 15:47:41 11° S 15:49:28 10° S daylight
29 Nov - 14:44:50 10° SSW 14:47:00 11° S 14:49:09 10° SSE visible
30 Nov - 13:44:31 10° S 13:46:18 11° S 13:48:05 10° SSE visible
30 Nov - 15:37:00 10° SSW 15:38:17 10° S 15:39:34 10° S daylight
01 Dec - 14:35:17 10° SSW 14:37:36 11° S 14:39:54 10° SSE visible
02 Dec - 13:34:25 10° SSW 13:36:53 12° S 13:39:21 10° SSE visible
03 Dec - 12:34:12 10° S 12:36:10 11° S 12:38:10 10° SSE visible
03 Dec - 14:26:26 10° SSW 14:28:11 11° S 14:29:54 10° S visible
04 Dec - 13:25:01 10° SSW 13:27:28 12° S 13:29:55 10° SSE visible
05 Dec - 12:24:18 10° SSW 12:26:45 12° S 12:29:13 10° SSE visible
